Location: Baller�as
(41.9020°N, 0.1554°W)
Time: 01:33:44
(UTC+00:00)

ARGOS - Pass Details

Date: 10 August 2020
Orbit: 820 x 835 km, 98.5° (Epoch: 22 September)

Event Time Altitude Azimuth Distance (km) Brightness Sun altitude
Rises 19:37:13 0° 171° (S) 3,358 6.0 -5.9°
Reaches altitude 10° 19:39:35 10° 174° (S) 2,426 5.3 -6.3°
Maximum altitude 19:44:56 70° 258° (WSW) 880 3.5 -7.2°
Drops below altitude 10° 19:50:19 10° 342° (NNW) 2,433 6.3 -8.1°
Sets 19:52:42 0° 345° (NNW) 3,369 7.1 -8.5°
